STARLINK-31470, 59569

Orbit data source: Space-Track

STARLINK-31470, 59569 is a payload satellite owned by SpaceX/Seattle (US) in LEO that was launched on Tue, 23 Apr 2024 UTC via an FALCON 9 launch vehicle from the Air Force Eastern Test Range (AFETR). Payload-class satellites include a variety of spacecraft equipped with specific instruments for various scientific and technological missions. These include communications satellites like Starlink; space stations such as the ISS; scientific satellites like the Hubble; Earth observation satellites from companies like Planet Labs, Umbra, and HawkEye 360; GPS; miniature CubeSats for education and research; and military/defense satellites.

Loading next visibility...
Identifier
59569, 2024-076F
Orbit
LEO
Country
Flag of USUS
Related business
Manufacturer
SpaceX/Seattle
Mission
Operational spacecraft
Bus & Motor
STARLINK V2M, Unknown motor
Mass
730 kg wet, ~700 kg dry
Launch date (UTC)
2024-04-23 (1 year ago)
Launch vehicle
FALCON 9
Launch site
Air Force Eastern Test Range (AFETR)
Object type
Payload
Rocket body
Debris
Shape & HBR
Unknown
Radar Cross Section
Large (>1 m²)

Expand to show TLE details & history
Last TLE update: 19 hours ago

TLE from 19 hours ago
0 STARLINK-31470
1 59569U 24076F   25260.03364620 -.00000677  00000-0 -15072-4 0  9993
2 59569  43.0023 266.3133 0001631 270.9524  89.1141 15.27571961 79893
Epoch: 2025-09-17T00:48Z
TLE epoch observation values (Epoch: 2025-09-17T00:48:27.031Z)
Latitude
-0.00001°
Longitude
-102.01474°
Altitude
482.832 km
Speed
7.626 km/s
True Right ascension
17h 45m 15s
True Declination
0° 00' 00"
Sunlit
Object was in daylight at epoch
Visualization orbit readout
Latitude
Unknown
Longitude
Unknown
Altitude
Unknown
Speed
Unknown
Apparent Right ascension
Unknown
Apparent Declination
Unknown
Sunlit
N/A
Visualization observer readout
Local Sidereal Time
12:34:25
Azimuth
Unknown
Elevation
Unknown
Doppler factor
Unknown
Orbital elements
Apogee altitude
486.137 km
Perigee altitude
483.899 km
Semi-major axis
6,863.155 km
Eccentricity
0.00016
Inclination
43.0023°
RAAN
266.3133°
Arg. of periapsis
270.9524°
True anomaly
89.13279°
Mean anomaly
89.1141°
Eccentric anomaly
89.12344°
Mean motion
3.81731 °/min
Orbital period
94.31 mins
BSTAR
-0.000015072
Loading maneuver chart data...
Computing Atmospheric mass density...
Loading historical data...
Loading historical data...
Loading historical data...
Loading historical data...
Loading historical data...
Loading historical data...
Loading historical data...

Documentation

Showing up to 5 results
|